Visibility
6.1 7.0 0.5 3.9 4.3 5.6 14.1 15.0 15.0 15.0 15.0 15.0 15.0 15.0 15.0 15.0 15.0 15.0 15.0 15.0 15.0 15.0 15.0 15.0 15.0 15.0 15.0
0.1 0.1 0.1 0.4 3.7 15.0 15.0 15.0 15.0 15.0 15.0 15.0 15.0 15.0 15.0 15.0 15.0 15.0 15.0 15.0 15.0 15.0 15.0 15.0 15.0 15.0 15.0
0.1 0.2 0.1 0.1 0.1 5.6 15.0 15.0 15.0 15.0 15.0 15.0 15.0 15.0 15.0 15.0 15.0 15.0 15.0 15.0 15.0 15.0 15.0 15.0 15.0 15.0 15.0
0.1 0.1 0.3 0.1 15.0 8.2 15.0 15.0 15.0 15.0 15.0 15.0 15.0 15.0 15.0 15.0 15.0 15.0 15.0 15.0 15.0 15.0 15.0 15.0 15.0 15.0 15.0
9.1 11.5 2.1 14.8 12.6 15.0 15.0 15.0 15.0 15.0 15.0 15.0 15.0 15.0 15.0 15.0 15.0 15.0 15.0 15.0 15.0 15.0 15.0 15.0 15.0 15.0 15.0
15.0 15.0 15.0 15.0 15.0 15.0 15.0 15.0 15.0 15.0 15.0 15.0 15.0 15.0 15.0 15.0 15.0 15.0 15.0 15.0 15.0 15.0 15.0 15.0 15.0 15.0 15.0
15.0 15.0 15.0 15.0 15.0 15.0 15.0 15.0 15.0 15.0 15.0 15.0 15.0 15.0 15.0 15.0 15.0 15.0 15.0 15.0 15.0 15.0 15.0 15.0 14.5 15.0 15.0
15.0 15.0 15.0 15.0 15.0 15.0 15.0 15.0 15.0 15.0 15.0 6.4 15.0 15.0 15.0 15.0 15.0 15.0 15.0 15.0 15.0 15.0 15.0 15.0 15.0 15.0 15.0
15.0 15.0 15.0 15.0 15.0 15.0 15.0 15.0 15.0 15.0 15.0 15.0 15.0 15.0 15.0 15.0 15.0 15.0 15.0 15.0 15.0 15.0 15.0 15.0 15.0 15.0 15.0
15.0 15.0 15.0 15.0 15.0 15.0 15.0 15.0 4.2 14.5 15.0 8.6 7.9 8.4 14.7 14.6 15.0 15.0 15.0 15.0 15.0 15.0 15.0 15.0 15.0 15.0 15.0
15.0 15.0 15.0 15.0 15.0 15.0 15.0 15.0 5.6 8.0 15.0 15.0 0.2 4.3 1.3 11.2 11.5 14.6 15.0 15.0 15.0 15.0 15.0 15.0 15.0 14.7 15.0
15.0 15.0 15.0 15.0 15.0 15.0 15.0 15.0 15.0 2.9 12.4 9.5 0.4 4.1 0.6 0.7 0.8 13.1 15.0 15.0 15.0 15.0 15.0 15.0 15.0 15.0 15.0
14.2 15.0 6.8 15.0 15.0 15.0 15.0 15.0 15.0 15.0 15.0 14.9 0.6 1.0 0.3 0.5 0.6 15.0 11.8 15.0 15.0 15.0 12.1 14.6 15.0 15.0 15.0
15.0 14.5 6.7 15.0 15.0 15.0 9.3 5.4 1.4 13.4 15.0 14.9 2.7 1.1 0.3 0.6 0.8 3.0 15.0 2.2 15.0 15.0 15.0 15.0 15.0 15.0 15.0
11.0 9.9 15.0 8.7 12.4 14.0 12.2 5.9 0.9 4.0 10.9 15.0 15.0 15.0 1.2 1.3 0.2 13.6 15.0 15.0 15.0 15.0 15.0 9.8 15.0 15.0 15.0
14.3 5.3 1.8 2.7 2.6 3.4 1.8 1.2 1.6 7.0 7.0 15.0 14.3 5.3 5.8 5.9 3.7 2.3 15.0 10.0 15.0 15.0 15.0 1.1 7.8 15.0 15.0
3.5 2.5 1.7 1.8 6.5 4.4 3.1 1.0 1.4 8.6 15.0 15.0 15.0 1.9 0.3 0.8 15.0 15.0 15.0 15.0 15.0 15.0 15.0 14.9 14.1 15.0 15.0